This is the latest recevied weather packets stored in our database for station/object SQ3MKP-13. If no packets are shown the sender has not sent any weather packets the latest 10 day(s).
| Time | Temp. | Humidity | Pressure | Rain* | Wind** | Luminosity | Snow |
|---|---|---|---|---|---|---|---|
| 1777995641 | 16.11° C | 70% | 998.1 hPa | - | - | 53 W/m² | - |
| 1777995339 | 16.11° C | 69% | 998.1 hPa | - | - | 53 W/m² | - |
| 1777995038 | 16.11° C | 70% | 998.2 hPa | - | - | 59 W/m² | - |
| 1777994737 | 16.11° C | 71% | 998.2 hPa | - | - | 80 W/m² | - |
| 1777994436 | 16.67° C | 71% | 998.3 hPa | - | - | 83 W/m² | - |
| 1777994136 | 16.67° C | 71% | 998.2 hPa | - | - | 83 W/m² | - |
| 1777993834 | 16.67° C | 71% | 998.2 hPa | - | - | 74 W/m² | - |
| 1777993534 | 16.67° C | 71% | 998.2 hPa | - | - | 69 W/m² | - |
| 1777993233 | 16.67° C | 72% | 998.3 hPa | - | - | 69 W/m² | - |
| 1777992932 | 16.67° C | 72% | 998.3 hPa | - | - | 84 W/m² | - |
| 1777992631 | 16.67° C | 72% | 998.4 hPa | - | - | 96 W/m² | - |
| 1777992330 | 16.67° C | 72% | 998.4 hPa | - | - | 91 W/m² | - |
| 1777992029 | 17.22° C | 71% | 998.5 hPa | - | - | 89 W/m² | - |
| 1777991728 | 17.22° C | 71% | 998.3 hPa | - | - | 97 W/m² | - |
| 1777991427 | 17.78° C | 69% | 998.4 hPa | - | - | 101 W/m² | - |
| 1777991126 | 17.78° C | 69% | 998.4 hPa | - | - | 136 W/m² | - |
| 1777990825 | 18.33° C | 68% | 998.4 hPa | - | - | 170 W/m² | - |
| 1777990524 | 18.33° C | 67% | 998.4 hPa | - | - | 185 W/m² | - |
| 1777989922 | 18.89° C | 66% | 998.3 hPa | - | - | 185 W/m² | - |
| 1777989621 | 19.44° C | 65% | 998.3 hPa | - | - | 169 W/m² | - |
| 1777989320 | 19.44° C | 64% | 998.3 hPa | - | - | 174 W/m² | - |
| 1777989019 | 19.44° C | 64% | 998.3 hPa | - | - | 187 W/m² | - |
| 1777988718 | 20° C | 63% | 998.2 hPa | - | - | 233 W/m² | - |
| 1777988417 | 20° C | 62% | 998.3 hPa | - | - | 496 W/m² | - |
| 1777988117 | 20° C | 63% | 998.3 hPa | - | - | 424 W/m² | - |
* Rain since midnight (hover to see other rain measurements)
** Current wind speed in m/s (hover to see current wind gust speed)